Wellsville, NY

6:07 AM EDT on October 16, 2019 (GMT -0400)
Wellsville Municipal-Tarantine

Weather History for KELZ - August, 2019

Change the Weather History Date:

Friday, August 9, 2019

  Actual Average (KDSV) Record (KDSV)
Temperature  
Mean Temperature 64 °F -  
Max Temperature 72 °F 82 °F 100 °F (2001)
Min Temperature 55 °F 59 °F 44 °F (1964)
Degree Days  
Heating Degree Days 2    
Growing Degree Days 14 (Base 50)    
Moisture  
Dew Point 54 °F    
Average Humidity 78    
Maximum Humidity 100    
Minimum Humidity 47    
Precipitation  
Precipitation 0.00 in - - ()
Sea Level Pressure  
Sea Level Pressure 29.86 in    
Wind  
Wind Speed 7 mph ()    
Max Wind Speed 16 mph    
Max Gust Speed 24 mph    
Visibility 8.0 miles    
Events Fog    
Averages and records for this station are not official NWS values.
T = Trace of Precipitation, MM = Missing Value Source: Averaged Metar Reports

Daily Weather History Graph

Daily Weather History Graph

Search for Another Location

Airport or City:

Astronomy

Aug. 09, 2019 Rise Set
Actual Time 6:13 AM EDT 8:21 PM EDT
Civil Twilight 5:42 AM EDT 8:51 PM EDT
Nautical Twilight 5:04 AM EDT 9:29 PM EDT
Astronomical Twilight 4:22 AM EDT 10:10 PM EDT
Moon 4:01 PM EDT (8/9) 1:08 AM EDT (8/9)
Length of Visible Light 15h 09m
Length of Day
14h 08m
Waxing Gibbous, 70% of the Moon is Illuminated
Aug 9
Waxing Gibbous
Aug 15
Full
Aug 23
Last Quarter
Aug 30
New
Sep 5
First Quarter

Hourly Weather History & Observations

Time (EDT) Temp. Dew Point Humidity Pressure Visibility Wind Dir Wind Speed Gust Speed Precip Events Conditions
12:56 AM 60.1 °F 57.9 °F 93% 29.81 in 10.0 mi West 6.9 mph - N/A   Clear
1:56 AM 60.1 °F 59.0 °F 96% 29.82 in 10.0 mi West 4.6 mph - N/A   Mostly Cloudy
2:56 AM 60.1 °F 59.0 °F 96% 29.81 in 10.0 mi WSW 4.6 mph - N/A   Scattered Clouds
4:06 AM 57.0 °F 57.0 °F 100% 29.83 in 0.8 mi WNW 6.9 mph - N/A   Overcast
4:08 AM 57.9 °F 57.9 °F 100% 29.83 in 2.5 mi NNW 6.9 mph - N/A   Mostly Cloudy
4:13 AM 57.0 °F 57.0 °F 100% 29.83 in 0.8 mi North 6.9 mph - N/A   Overcast
4:18 AM 57.0 °F 57.0 °F 100% 29.83 in 0.2 mi NNW 4.6 mph - N/A Fog Fog
4:27 AM 57.0 °F 57.0 °F 100% 29.83 in 0.8 mi NW 3.5 mph - N/A   Mostly Cloudy
4:31 AM 57.0 °F 57.0 °F 100% 29.83 in 2.0 mi West 4.6 mph - N/A   Mostly Cloudy
4:34 AM 57.0 °F 57.0 °F 100% 29.83 in 4.0 mi WNW 3.5 mph - N/A   Mostly Cloudy
4:56 AM 57.0 °F 57.0 °F 100% 29.81 in 8.0 mi West 4.6 mph - N/A   Partly Cloudy
5:56 AM 55.9 °F 55.9 °F 100% 29.83 in 10.0 mi WNW 8.1 mph - N/A   Clear
6:56 AM 57.9 °F 54.0 °F 87% 29.86 in 10.0 mi NW 9.2 mph - N/A   Mostly Cloudy
7:56 AM 59.0 °F 54.0 °F 83% 29.87 in 10.0 mi WNW 8.1 mph - N/A   Clear
8:56 AM 62.1 °F 53.1 °F 72% 29.88 in 10.0 mi WNW 8.1 mph - N/A   Clear
9:56 AM 64.0 °F 54.0 °F 70% 29.88 in 10.0 mi WNW 12.7 mph - N/A   Clear
10:56 AM 66.0 °F 52.0 °F 60% 29.88 in 10.0 mi NW 12.7 mph - N/A   Clear
11:56 AM 64.9 °F 52.0 °F 63% 29.89 in 10.0 mi West 12.7 mph - N/A   Mostly Cloudy
12:56 PM 66.9 °F 54.0 °F 63% 29.88 in 10.0 mi North - - N/A   Scattered Clouds
1:56 PM 71.1 °F 52.0 °F 51% 29.86 in 10.0 mi WNW 11.5 mph 18.4 mph N/A   Mostly Cloudy
2:56 PM 72.0 °F 51.1 °F 48% 29.86 in 10.0 mi West 16.1 mph 24.2 mph N/A   Partly Cloudy
3:56 PM 71.1 °F 50.0 °F 47% 29.85 in 10.0 mi WNW 13.8 mph - N/A   Clear
4:56 PM 71.1 °F 51.1 °F 49% 29.86 in 10.0 mi WNW 13.8 mph - N/A   Clear
5:56 PM 69.1 °F 50.0 °F 51% 29.87 in 10.0 mi West 11.5 mph - N/A   Partly Cloudy
6:56 PM 66.9 °F 51.1 °F 57% 29.87 in 10.0 mi West 10.4 mph - N/A   Scattered Clouds
7:56 PM 63.0 °F 52.0 °F 67% 29.88 in 10.0 mi West 11.5 mph - N/A   Clear
8:56 PM 61.0 °F 52.0 °F 72% 29.89 in 10.0 mi West 8.1 mph - N/A   Clear
9:56 PM 61.0 °F 52.0 °F 72% 29.89 in 10.0 mi West 10.4 mph - N/A   Clear
10:56 PM 60.1 °F 53.1 °F 78% 29.90 in 10.0 mi WSW 6.9 mph - N/A   Partly Cloudy
11:56 PM 60.1 °F 53.1 °F 78% 29.90 in 10.0 mi West 5.8 mph - N/A   Overcast